GW5899 Weather Reports


time (UTC)temp
F
wind
direction
speed
knots
gust
knots
rain 1hr
in
rain 24hr
in
rain mn
in
humidity
%
barometer
mb
20260503051054 41 244 0.0 0.0 0.00 0.00 0.00 69 1013.3
20260503050549 41 246 0.0 0.9 0.00 0.00 0.00 68 1013.5
20260503050047 42 242 0.0 0.0 0.00 0.00 0.00 68 1013.4
20260503045544 42 233 1.7 1.7 0.00 0.00 0.00 68 1013.4
20260503045041 42 245 1.7 1.7 0.00 0.00 0.00 68 1013.5
20260503044538 42 240 0.9 1.7 0.00 0.00 0.00 69 1013.3
20260503044036 42 239 1.7 1.7 0.00 0.00 0.00 68 1013.4
20260503043531 42 252 0.9 0.9 0.00 0.00 0.00 69 1013.6
20260503043028 42 246 0.0 0.0 0.00 0.00 0.00 69 1013.5
20260503042525 42 239 0.0 0.9 0.00 0.00 0.00 69 1013.7
20260503042021 42 246 0.0 0.0 0.00 0.00 0.00 70 1013.6
20260503041518 42 246 0.9 0.9 0.00 0.00 0.00 70 1013.6
20260503041016 42 243 0.9 1.7 0.00 0.00 0.00 69 1013.6
20260503040514 42 241 1.7 1.7 0.00 0.00 0.00 70 1013.6
20260503040011 42 245 0.9 0.9 0.00 0.01 0.01 71 1013.5
20260503035507 42 247 1.7 1.7 0.00 0.01 0.01 69 1013.5
20260503035005 42 223 2.6 2.6 0.00 0.01 0.01 69 1013.6
20260503034502 42 240 1.7 1.7 0.00 0.01 0.01 70 1013.7
20260503033959 42 254 1.7 1.7 0.00 0.01 0.01 70 1013.6
20260503033456 42 238 1.7 1.7 0.00 0.01 0.01 70 1013.7
20260503032954 42 236 0.9 0.9 0.00 0.01 0.01 70 1013.8
20260503032452 42 243 0.9 0.9 0.00 0.01 0.01 69 1013.6
20260503031949 42 247 1.7 2.6 0.00 0.01 0.01 70 1013.6
20260503031447 42 245 0.9 0.9 0.00 0.01 0.01 70 1013.8
20260503030943 42 239 0.9 0.9 0.00 0.01 0.01 70 1013.8
20260503030440 42 254 0.9 0.9 0.00 0.01 0.01 70 1013.8
20260503025937 42 228 0.9 1.7 0.00 0.01 0.01 70 1013.8
20260503025434 42 251 1.7 2.6 0.00 0.01 0.01 69 1013.8
20260503024932 42 250 0.9 1.7 0.00 0.01 0.01 71 1013.8
20260503024428 42 231 1.7 1.7 0.00 0.01 0.01 71 1013.9
20260503023925 42 265 0.0 0.9 0.00 0.01 0.01 71 1013.8
20260503023422 42 246 0.9 1.7 0.00 0.01 0.01 72 1014.0
20260503022919 43 257 0.9 1.7 0.00 0.01 0.01 72 1014.1
20260503022420 43 266 0.9 0.9 0.00 0.01 0.01 71 1014.0
20260503021916 43 244 0.9 0.9 0.00 0.01 0.01 71 1014.0
20260503021412 43 273 1.7 1.7 0.00 0.01 0.01 70 1014.1
20260503020909 43 240 0.9 1.7 0.00 0.01 0.01 71 1014.0
20260503020407 43 256 1.7 2.6 0.00 0.01 0.01 70 1014.1
20260503015903 43 237 0.9 0.9 0.00 0.01 0.01 71 1014.0
20260503015400 43 239 0.9 1.7 0.00 0.01 0.01 71 1014.0
20260503014856 43 256 1.7 1.7 0.00 0.01 0.01 71 1014.2
20260503014354 43 237 0.9 1.7 0.00 0.01 0.01 70 1014.1
20260503013851 43 229 1.7 2.6 0.00 0.01 0.01 70 1014.1
20260503013348 43 258 0.9 0.9 0.00 0.01 0.01 70 1014.0
20260503012845 43 244 0.0 0.9 0.00 0.01 0.01 70 1014.0
20260503012343 43 247 0.9 0.9 0.00 0.01 0.01 70 1014.1
20260503011840 43 261 2.6 2.6 0.00 0.01 0.01 69 1014.1
20260503011336 43 240 2.6 2.6 0.00 0.01 0.01 69 1013.9
20260503010833 43 244 0.9 1.7 0.00 0.01 0.01 70 1014.0
20260503010330 43 245 0.0 0.9 0.00 0.01 0.01 69 1014.0
20260503005827 43 253 0.9 0.9 0.00 0.01 0.01 68 1014.0
20260503005324 43 269 0.9 0.9 0.00 0.01 0.01 70 1013.9
20260503004820 43 239 0.9 1.7 0.00 0.01 0.01 69 1013.8
20260503004318 43 246 0.0 0.9 0.00 0.01 0.01 69 1013.6
20260503003816 43 249 0.9 0.9 0.00 0.01 0.01 68 1013.7
20260503003312 43 252 2.6 3.5 0.00 0.01 0.01 67 1013.7
20260503002809 43 252 0.9 1.7 0.00 0.01 0.01 67 1013.7
20260503002306 43 255 0.9 1.7 0.00 0.01 0.01 67 1013.6
20260503001803 43 277 1.7 1.7 0.00 0.01 0.01 68 1013.7
20260503001259 43 250 0.0 0.9 0.00 0.01 0.01 70 1013.7
20260503000757 43 258 0.9 0.9 0.00 0.01 0.01 70 1013.6
20260503000254 43 254 0.0 0.9 0.00 0.01 0.01 71 1013.5
20260502235751 43 241 1.7 1.7 0.00 0.01 0.01 71 1013.6
20260502235248 43 256 0.9 0.9 0.00 0.01 0.01 71 1013.5
20260502234744 43 253 0.0 0.9 0.00 0.01 0.01 70 1013.5
20260502234242 44 231 2.6 2.6 0.00 0.01 0.01 69 1013.3
20260502233738 43 258 1.7 1.7 0.00 0.01 0.01 64 1013.4
20260502233235 43 305 4.3 6.1 0.00 0.01 0.01 64 1013.5
20260502232730 44 298 3.5 3.5 0.00 0.01 0.01 63 1013.4
20260502232228 44 251 1.7 2.6 0.00 0.01 0.01 64 1013.4
20260502231724 44 290 3.5 5.2 0.00 0.01 0.01 64 1013.3
20260502231222 44 311 4.3 5.2 0.00 0.01 0.01 63 1013.3
20260502230721 44 303 1.7 2.6 0.00 0.01 0.01 64 1013.3
20260502230219 44 273 2.6 3.5 0.00 0.01 0.01 64 1013.3
20260502225714 44 319 2.6 2.6 0.00 0.01 0.01 65 1013.3
20260502225212 44 337 3.5 5.2 0.00 0.01 0.01 63 1013.3
20260502224708 44 289 3.5 5.2 0.00 0.01 0.01 64 1013.4
20260502224204 44 255 1.7 1.7 0.00 0.01 0.01 64 1013.3
20260502223702 44 304 4.3 5.2 0.00 0.01 0.01 64 1013.5
20260502223200 44 292 1.7 2.6 0.00 0.01 0.01 64 1013.3
20260502222658 44 297 3.5 5.2 0.00 0.01 0.01 65 1013.5
20260502222154 44 284 2.6 2.6 0.00 0.01 0.01 66 1013.4
20260502221649 44 267 4.3 5.2 0.00 0.01 0.01 67 1013.5
20260502221147 44 289 2.6 2.6 0.00 0.01 0.01 67 1013.5
20260502220643 44 300 2.6 3.5 0.00 0.01 0.01 67 1013.4
20260502220139 44 296 3.5 3.5 0.00 0.01 0.01 67 1013.5
20260502215637 44 256 4.3 6.1 0.00 0.01 0.01 67 1013.3
20260502215133 44 305 3.5 7.0 0.00 0.01 0.01 67 1013.4
20260502214631 44 295 5.2 6.1 0.00 0.01 0.01 68 1013.5
20260502214127 44 310 3.5 3.5 0.00 0.01 0.01 68 1013.3
20260502213625 44 315 4.3 6.1 0.00 0.01 0.01 68 1013.2
20260502213122 45 265 3.5 5.2 0.00 0.01 0.01 67 1013.1
20260502212621 44 296 3.5 5.2 0.00 0.01 0.01 68 1013.3
20260502212119 44 322 3.5 3.5 0.00 0.01 0.01 67 1013.3
20260502211614 44 277 3.5 3.5 0.00 0.01 0.01 68 1013.1
20260502211111 44 313 2.6 2.6 0.00 0.01 0.01 69 1013.4
20260502210609 44 335 4.3 6.1 0.00 0.01 0.01 69 1013.2
20260502210105 44 296 3.5 3.5 0.00 0.01 0.01 68 1013.2
20260502205602 44 250 2.6 2.6 0.00 0.01 0.01 70 1013.3
20260502205059 44 277 7.0 9.6 0.00 0.01 0.01 69 1013.3
20260502204555 44 342 2.6 3.5 0.00 0.01 0.01 70 1013.4
20260502204053 44 284 1.7 2.6 0.00 0.01 0.01 71 1013.2
20260502203550 44 287 2.6 2.6 0.00 0.01 0.01 72 1013.4
20260502203048 44 309 3.5 5.2 0.00 0.01 0.01 71 1013.4
20260502202543 44 290 3.5 6.1 0.00 0.01 0.01 71 1013.5
20260502202042 45 260 7.0 8.7 0.00 0.01 0.01 70 1013.4
20260502201537 44 301 5.2 8.7 0.00 0.01 0.01 72 1013.4
20260502201034 44 309 3.5 3.5 0.00 0.01 0.01 72 1013.4
20260502200530 46 289 3.5 3.5 0.00 0.01 0.01 72 1013.6
20260502200028 46 304 5.2 7.0 0.00 0.01 0.01 70 1013.6
20260502195525 44 303 4.3 6.1 0.00 0.01 0.01 70 1013.5
20260502195021 44 335 3.5 5.2 0.00 0.01 0.01 72 1013.5
20260502194518 43 291 7.0 7.8 0.00 0.01 0.01 71 1013.5
20260502194014 42 290 2.6 2.6 0.00 0.01 0.01 73 1013.6
20260502193512 42 257 6.1 7.8 0.00 0.01 0.01 74 1013.7
20260502193008 42 283 4.3 5.2 0.00 0.01 0.01 74 1013.7
20260502192504 42 294 6.1 7.8 0.00 0.01 0.01 75 1013.8
20260502192002 42 294 3.5 5.2 0.00 0.01 0.01 76 1014.0
20260502191459 42 276 3.5 3.5 0.00 0.01 0.01 76 1013.8
20260502190956 42 292 4.3 5.2 0.00 0.01 0.01 75 1013.8
20260502190453 42 297 1.7 2.6 0.00 0.01 0.01 77 1013.8
20260502185949 42 261 3.5 6.1 0.00 0.01 0.01 77 1013.8
20260502185445 41 341 3.5 3.5 0.00 0.01 0.01 77 1013.8
20260502184942 41 313 7.8 11.3 0.00 0.01 0.01 75 1013.9
20260502184437 41 295 4.3 6.1 0.00 0.01 0.01 76 1013.5
20260502183934 42 300 5.2 7.0 0.00 0.01 0.01 75 1013.9
20260502183430 42 313 7.8 9.6 0.00 0.01 0.01 75 1013.8
20260502182926 42 305 4.3 7.8 0.00 0.01 0.01 75 1013.7
20260502182421 43 321 2.6 2.6 0.00 0.01 0.01 74 1013.8
20260502181918 45 256 5.2 7.8 0.00 0.01 0.01 71 1013.7
20260502181416 44 284 5.2 7.0 0.00 0.01 0.01 73 1013.7
20260502180914 44 340 5.2 6.1 0.00 0.01 0.01 72 1013.6
20260502180412 45 259 3.5 5.2 0.00 0.01 0.01 73 1013.6
20260502170330 42 341 5.2 7.0 0.00 0.01 0.01 75 1013.5
20260502164318 43 309 5.2 7.8 0.00 0.01 0.01 69 1013.6
20260502163814 43 273 4.3 6.1 0.00 0.01 0.01 69 1013.7
20260502163310 43 263 8.7 11.3 0.00 0.01 0.01 69 1013.6
20260502162808 43 356 3.5 7.0 0.00 0.01 0.01 73 1013.6
20260502162305 44 287 3.5 3.5 0.00 0.01 0.01 72 1013.6
20260502161800 43 336 6.1 7.0 0.00 0.01 0.01 70 1013.7
20260502161257 43 309 7.8 11.3 0.00 0.01 0.01 71 1013.7
20260502160755 43 330 6.1 8.7 0.00 0.01 0.01 70 1013.8
20260502160254 42 349 7.0 9.6 0.00 0.01 0.01 70 1013.7
20260502152223 42 268 5.2 7.8 0.00 0.01 0.01 74 1014.0
20260502151721 42 324 3.5 3.5 0.00 0.01 0.01 75 1013.9
20260502151218 42 274 7.0 8.7 0.00 0.01 0.01 74 1013.9
20260502150715 43 277 5.2 6.1 0.00 0.01 0.01 72 1013.8
20260502150212 43 309 5.2 7.8 0.00 0.01 0.01 72 1013.9
20260502130600 42 286 3.5 3.5 0.00 0.01 0.01 70 1014.3
20260502123543 42 273 1.7 1.7 0.00 0.01 0.01 73 1014.3
20260502123039 42 264 1.7 1.7 0.00 0.01 0.01 77 1014.4
20260502122536 42 225 2.6 3.5 0.00 0.01 0.01 76 1014.3
20260502122034 41 256 3.5 3.5 0.00 0.01 0.01 77 1014.4
20260502121531 41 244 5.2 7.0 0.00 0.01 0.01 75 1014.4
20260502121029 41 239 3.5 3.5 0.00 0.01 0.01 75 1014.2
20260502120525 41 239 2.6 2.6 0.00 0.01 0.01 78 1014.4
20260502115519 40 224 1.7 2.6 0.00 0.01 0.01 80 1014.4
20260502115015 40 217 3.5 6.1 0.00 0.01 0.01 80 1014.2
20260502114512 40 261 1.7 2.6 0.00 0.01 0.01 80 1014.2
20260502114009 39 352 3.5 5.2 0.00 0.01 0.01 81 1014.2
20260502113506 39 255 1.7 2.6 0.00 0.01 0.01 82 1014.2
20260502113005 39 241 1.7 2.6 0.00 0.01 0.01 81 1014.2
20260502112502 39 234 3.5 3.5 0.00 0.01 0.01 81 1014.1
20260502111959 38 241 0.9 1.7 0.00 0.01 0.01 82 1014.2
20260502111456 38 216 1.7 3.5 0.00 0.01 0.01 84 1014.3
20260502110954 38 246 1.7 2.6 0.00 0.01 0.01 83 1014.0
20260502110451 38 250 0.9 1.7 0.00 0.01 0.01 84 1014.3
20260502105949 37 254 2.6 3.5 0.00 0.01 0.01 85 1014.2
20260502105446 37 238 2.6 2.6 0.00 0.01 0.01 86 1014.0
20260502104944 37 220 1.7 1.7 0.00 0.01 0.01 87 1014.1
20260502104441 36 228 0.9 0.9 0.00 0.01 0.01 87 1014.0
20260502103938 36 246 1.7 1.7 0.00 0.01 0.01 87 1013.9
20260502103436 36 262 2.6 3.5 0.00 0.01 0.01 88 1013.9
20260502102932 36 253 1.7 2.6 0.00 0.01 0.01 87 1013.9
20260502102429 36 247 0.9 0.9 0.00 0.01 0.01 87 1013.8
20260502101926 36 245 0.9 0.9 0.00 0.01 0.01 87 1013.6
20260502101425 37 235 0.9 1.7 0.00 0.01 0.01 87 1013.6
20260502100922 37 249 2.6 3.5 0.00 0.01 0.01 86 1013.6
20260502100422 37 228 0.9 1.7 0.00 0.01 0.01 86 1013.7
20260502091355 38 259 1.7 2.6 0.00 0.01 0.01 83 1013.1
20260502090853 38 249 2.6 2.6 0.00 0.01 0.01 83 1013.2
20260502090349 38 227 1.7 1.7 0.00 0.01 0.01 82 1013.1
20260502071244 41 276 3.5 3.5 0.00 0.01 0.01 80 1012.2
20260502070743 41 272 2.6 2.6 0.00 0.01 0.01 82 1012.0
20260502070240 41 267 1.7 1.7 0.00 0.01 0.01 81 1012.1
20260502065739 41 260 2.6 3.5 0.00 0.01 0.01 81 1012.2
20260502065236 41 316 3.5 3.5 0.07 0.01 0.01 82 1012.4
20260502064734 41 259 3.5 3.5 0.07 0.01 0.01 83 1012.2
20260502064232 42 270 4.3 6.1 0.00 0.00 0.00 83 1012.2
20260502063729 42 279 0.9 1.7 0.00 0.00 0.00 87 1012.2
20260502063227 42 293 0.9 1.7 0.00 0.00 0.00 87 1012.2
20260502062724 42 248 0.0 0.0 0.00 0.00 0.00 86 1012.3
20260502062222 42 275 0.9 3.5 0.00 0.00 0.00 87 1012.3
20260502061720 42 247 0.9 1.7 0.00 0.00 0.00 88 1012.3
20260502061217 42 247 0.0 0.0 0.00 0.00 0.00 88 1012.3
20260502060712 42 241 0.0 0.0 0.00 0.00 0.00 89 1012.3
20260502060208 42 246 0.0 0.0 0.00 0.00 0.00 90 1012.3
20260502055706 42 228 0.0 0.0 0.00 0.00 0.00 91 1012.3
20260502055204 42 241 0.0 0.0 0.00 0.00 0.00 92 1012.5
20260502054703 42 252 0.0 0.0 0.00 0.00 0.00 92 1012.3
20260502054200 42 252 0.0 0.0 0.00 0.00 0.00 93 1012.3
20260502053657 42 245 0.0 0.0 0.00 0.00 0.00 93 1012.4
20260502053154 42 240 0.0 0.0 0.00 0.00 0.00 94 1012.5
20260502052652 42 245 0.0 0.0 0.00 0.00 0.00 94 1012.4
20260502052150 42 246 0.0 0.0 0.00 0.00 0.00 94 1012.3
20260502051648 42 247 0.0 0.0 0.00 0.00 0.00 94 1012.4